Time,TemperatureF,DewpointF,PressureIn,WindDirection,WindDirectionDegrees,WindSpeedMPH,WindSpeedGustMPH,Humidity,HourlyPrecipIn,Conditions,Clouds,dailyrainin,SolarRadiationWatts/m^2,SoftwareType,DateUTC
2013-07-17 00:00:00,70.0,67.6,30.32,West,273,1.0,4.0,92,0.00,,,0.00,0,Wunderground v.1.15,2013-07-17 04:00:00,
2013-07-17 00:05:00,70.2,67.8,30.33,NNW,344,1.0,4.0,92,0.00,,,0.00,0,Wunderground v.1.15,2013-07-17 04:05:00,
2013-07-17 00:09:00,70.3,67.5,30.32,NNW,328,1.0,1.0,91,0.00,,,0.00,0,Wunderground v.1.15,2013-07-17 04:09:00,
2013-07-17 00:15:00,70.4,68.0,30.32,NNW,329,0.0,2.0,92,0.00,,,0.00,0,Wunderground v.1.15,2013-07-17 04:15:00,
2013-07-17 00:20:00,70.5,67.7,30.32,NNW,331,1.0,2.0,91,0.00,,,0.00,0,Wunderground v.1.15,2013-07-17 04:20:00,
2013-07-17 00:25:00,70.6,67.8,30.32,NNW,345,1.0,2.0,91,0.00,,,0.00,0,Wunderground v.1.15,2013-07-17 04:25:00,
2013-07-17 00:29:00,70.8,67.7,30.32,NNW,347,1.0,1.0,90,0.00,,,0.00,0,Wunderground v.1.15,2013-07-17 04:29:00,
2013-07-17 00:35:00,71.0,67.9,30.32,NNW,346,1.0,1.0,90,0.00,,,0.00,0,Wunderground v.1.15,2013-07-17 04:35:00,
2013-07-17 00:40:00,71.2,68.1,30.32,NNW,346,0.0,1.0,90,0.00,,,0.00,0,Wunderground v.1.15,2013-07-17 04:40:00,
2013-07-17 00:44:00,71.3,67.9,30.32,NW,317,1.0,3.0,89,0.00,,,0.00,0,Wunderground v.1.15,2013-07-17 04:44:00,
2013-07-17 00:50:00,71.3,67.9,30.32,NW,326,1.0,2.0,89,0.00,,,0.00,0,Wunderground v.1.15,2013-07-17 04:50:00,
2013-07-17 00:55:00,71.4,68.0,30.32,NNW,346,1.0,2.0,89,0.00,,,0.00,0,Wunderground v.1.15,2013-07-17 04:55:00,
2013-07-17 01:00:00,71.5,68.1,30.32,North,355,2.0,2.0,89,0.00,,,0.00,0,Wunderground v.1.15,2013-07-17 05:00:00,
2013-07-17 01:10:00,71.7,68.3,30.32,NW,318,3.0,3.0,89,0.00,,,0.00,0,Wunderground v.1.15,2013-07-17 05:10:00,
2013-07-17 01:14:00,71.7,68.0,30.32,WSW,258,3.0,3.0,88,0.00,,,0.00,0,Wunderground v.1.15,2013-07-17 05:14:00,
2013-07-17 01:19:00,71.8,68.1,30.31,NNW,342,3.0,3.0,88,0.00,,,0.00,0,Wunderground v.1.15,2013-07-17 05:19:00,
2013-07-17 01:25:00,71.7,68.0,30.31,NW,307,2.0,3.0,88,0.00,,,0.00,0,Wunderground v.1.15,2013-07-17 05:25:00,
2013-07-17 01:30:00,71.7,68.0,30.31,NNW,336,2.0,5.0,88,0.00,,,0.00,0,Wunderground v.1.15,2013-07-17 05:30:00,
2013-07-17 01:35:00,71.7,68.0,30.31,NW,326,3.0,5.0,88,0.00,,,0.00,0,Wunderground v.1.15,2013-07-17 05:35:00,
2013-07-17 01:40:00,71.7,68.0,30.31,NNW,344,2.0,3.0,88,0.00,,,0.00,0,Wunderground v.1.15,2013-07-17 05:40:00,
2013-07-17 01:49:00,71.8,68.1,30.30,NW,309,1.0,2.0,88,0.00,,,0.00,0,Wunderground v.1.15,2013-07-17 05:49:00,
2013-07-17 01:55:00,71.9,68.2,30.30,WNW,292,1.0,2.0,88,0.00,,,0.00,0,Wunderground v.1.15,2013-07-17 05:55:00,
2013-07-17 02:00:00,71.9,68.2,30.30,West,265,2.0,3.0,88,0.00,,,0.00,0,Wunderground v.1.15,2013-07-17 06:00:00,
2013-07-17 02:04:00,71.9,68.2,30.30,WNW,302,1.0,3.0,88,0.00,,,0.00,0,Wunderground v.1.15,2013-07-17 06:04:00,
2013-07-17 02:09:00,71.9,68.2,30.30,North,5,1.0,1.0,88,0.00,,,0.00,0,Wunderground v.1.15,2013-07-17 06:09:00,
2013-07-17 02:15:00,71.9,68.2,30.30,WSW,252,0.0,1.0,88,0.00,,,0.00,0,Wunderground v.1.15,2013-07-17 06:15:00,
2013-07-17 02:20:00,71.9,68.2,30.30,WSW,252,1.0,1.0,88,0.00,,,0.00,0,Wunderground v.1.15,2013-07-17 06:20:00,
2013-07-17 02:25:00,71.8,68.1,30.30,West,260,0.0,1.0,88,0.00,,,0.00,0,Wunderground v.1.15,2013-07-17 06:25:00,
2013-07-17 02:30:00,71.8,67.7,30.30,West,273,0.0,2.0,87,0.00,,,0.00,0,Wunderground v.1.15,2013-07-17 06:30:00,
2013-07-17 02:35:00,71.8,67.7,30.30,NW,322,1.0,2.0,87,0.00,,,0.00,0,Wunderground v.1.15,2013-07-17 06:35:00,
2013-07-17 02:45:00,71.8,67.7,30.30,West,273,1.0,1.0,87,0.00,,,0.00,0,Wunderground v.1.15,2013-07-17 06:45:00,
2013-07-17 02:50:00,71.8,67.7,30.29,South,180,2.0,2.0,87,0.00,,,0.00,0,Wunderground v.1.15,2013-07-17 06:50:00,
2013-07-17 02:54:00,71.8,67.7,30.29,WSW,256,2.0,2.0,87,0.00,,,0.00,0,Wunderground v.1.15,2013-07-17 06:54:00,
2013-07-17 03:00:00,71.8,67.7,30.29,West,279,2.0,2.0,87,0.00,,,0.00,0,Wunderground v.1.15,2013-07-17 07:00:00,
2013-07-17 03:05:00,71.8,67.7,30.29,WSW,254,2.0,2.0,87,0.00,,,0.00,0,Wunderground v.1.15,2013-07-17 07:05:00,
2013-07-17 03:10:00,71.9,67.5,30.29,WSW,248,1.0,1.0,86,0.00,,,0.00,0,Wunderground v.1.15,2013-07-17 07:10:00,
2013-07-17 03:14:00,71.8,67.4,30.29,WNW,301,1.0,1.0,86,0.00,,,0.00,0,Wunderground v.1.15,2013-07-17 07:14:00,
2013-07-17 03:19:00,71.9,67.5,30.29,WNW,288,1.0,4.0,86,0.00,,,0.00,0,Wunderground v.1.15,2013-07-17 07:19:00,
2013-07-17 03:25:00,71.9,67.5,30.30,NNW,333,1.0,4.0,86,0.00,,,0.00,0,Wunderground v.1.15,2013-07-17 07:25:00,
2013-07-17 03:35:00,71.8,67.7,30.30,West,277,1.0,5.0,87,0.00,,,0.00,0,Wunderground v.1.15,2013-07-17 07:35:00,
2013-07-17 03:40:00,71.7,67.6,30.30,West,265,1.0,1.0,87,0.00,,,0.00,0,Wunderground v.1.15,2013-07-17 07:40:00,
2013-07-17 03:45:00,71.7,67.6,30.30,WNW,294,1.0,3.0,87,0.00,,,0.00,0,Wunderground v.1.15,2013-07-17 07:45:00,
2013-07-17 03:49:00,71.7,67.6,30.29,SW,234,2.0,2.0,87,0.00,,,0.00,0,Wunderground v.1.15,2013-07-17 07:49:00,
2013-07-17 03:55:00,71.7,67.6,30.29,NNW,329,2.0,3.0,87,0.00,,,0.00,0,Wunderground v.1.15,2013-07-17 07:55:00,
2013-07-17 04:00:00,71.5,67.4,30.29,NW,325,2.0,2.0,87,0.00,,,0.00,0,Wunderground v.1.15,2013-07-17 08:00:00,
2013-07-17 04:05:00,71.5,67.4,30.30,WSW,248,1.0,3.0,87,0.00,,,0.00,0,Wunderground v.1.15,2013-07-17 08:05:00,
2013-07-17 04:10:00,71.4,67.7,30.30,SSW,207,2.0,2.0,88,0.00,,,0.00,0,Wunderground v.1.15,2013-07-17 08:10:00,
2013-07-17 04:15:00,71.3,67.6,30.30,WNW,302,2.0,2.0,88,0.00,,,0.00,0,Wunderground v.1.15,2013-07-17 08:15:00,
2013-07-17 04:20:00,71.3,67.6,30.30,NW,324,2.0,2.0,88,0.00,,,0.00,0,Wunderground v.1.15,2013-07-17 08:20:00,
2013-07-17 04:24:00,71.3,67.6,30.30,WNW,297,2.0,5.0,88,0.00,,,0.00,0,Wunderground v.1.15,2013-07-17 08:24:00,
2013-07-17 04:30:00,71.2,67.5,30.30,West,279,1.0,1.0,88,0.00,,,0.00,0,Wunderground v.1.15,2013-07-17 08:30:00,
2013-07-17 04:40:00,71.0,67.6,30.30,WNW,284,1.0,1.0,89,0.00,,,0.00,0,Wunderground v.1.15,2013-07-17 08:40:00,
2013-07-17 04:45:00,70.9,67.5,30.30,WNW,294,1.0,1.0,89,0.00,,,0.00,0,Wunderground v.1.15,2013-07-17 08:45:00,
2013-07-17 04:50:00,70.9,67.5,30.30,WNW,294,1.0,1.0,89,0.00,,,0.00,0,Wunderground v.1.15,2013-07-17 08:50:00,
2013-07-17 04:55:00,70.8,67.4,30.30,NW,324,1.0,1.0,89,0.00,,,0.00,0,Wunderground v.1.15,2013-07-17 08:55:00,
2013-07-17 05:00:00,70.8,67.4,30.30,WNW,293,1.0,3.0,89,0.00,,,0.00,0,Wunderground v.1.15,2013-07-17 09:00:00,
2013-07-17 05:05:00,70.7,67.6,30.30,NW,304,1.0,3.0,90,0.00,,,0.00,0,Wunderground v.1.15,2013-07-17 09:05:00,
2013-07-17 05:10:00,70.7,67.6,30.30,NNW,327,1.0,2.0,90,0.00,,,0.00,0,Wunderground v.1.15,2013-07-17 09:10:00,
2013-07-17 05:14:00,70.8,67.7,30.30,WSW,256,1.0,2.0,90,0.00,,,0.00,0,Wunderground v.1.15,2013-07-17 09:14:00,
2013-07-17 05:19:00,70.8,67.7,30.30,North,355,2.0,2.0,90,0.00,,,0.00,0,Wunderground v.1.15,2013-07-17 09:19:00,
2013-07-17 05:25:00,70.9,67.8,30.30,NNW,342,2.0,4.0,90,0.00,,,0.00,0,Wunderground v.1.15,2013-07-17 09:25:00,
2013-07-17 05:30:00,71.0,67.6,30.30,NW,325,3.0,3.0,89,0.00,,,0.00,0,Wunderground v.1.15,2013-07-17 09:30:00,
2013-07-17 05:34:00,71.0,67.6,30.30,NNW,337,3.0,3.0,89,0.00,,,0.00,0,Wunderground v.1.15,2013-07-17 09:34:00,
2013-07-17 05:40:00,71.0,67.6,30.30,NNW,327,2.0,2.0,89,0.00,,,0.00,0,Wunderground v.1.15,2013-07-17 09:40:00,
2013-07-17 05:49:00,71.0,67.6,30.30,NW,326,2.0,3.0,89,0.00,,,0.00,0,Wunderground v.1.15,2013-07-17 09:49:00,
2013-07-17 05:55:00,71.1,67.7,30.30,NNW,334,2.0,3.0,89,0.00,,,0.00,0,Wunderground v.1.15,2013-07-17 09:55:00,
2013-07-17 06:00:00,71.1,67.7,30.30,NE,55,2.0,2.0,89,0.00,,,0.00,0,Wunderground v.1.15,2013-07-17 10:00:00,
2013-07-17 06:05:00,71.2,67.8,30.30,NNW,338,1.0,2.0,89,0.00,,,0.00,0,Wunderground v.1.15,2013-07-17 10:05:00,
2013-07-17 06:09:00,71.2,67.8,30.31,West,275,2.0,2.0,89,0.00,,,0.00,0,Wunderground v.1.15,2013-07-17 10:09:00,
2013-07-17 06:15:00,71.3,67.9,30.30,NW,321,1.0,2.0,89,0.00,,,0.00,0,Wunderground v.1.15,2013-07-17 10:15:00,
2013-07-17 06:20:00,71.3,67.9,30.30,NW,321,0.0,0.0,89,0.00,,,0.00,0,Wunderground v.1.15,2013-07-17 10:20:00,
2013-07-17 06:25:00,71.3,67.9,30.30,West,279,0.0,0.0,89,0.00,,,0.00,0,Wunderground v.1.15,2013-07-17 10:25:00,
2013-07-17 06:30:00,71.3,67.9,30.30,West,277,1.0,1.0,89,0.00,,,0.00,0,Wunderground v.1.15,2013-07-17 10:30:00,
2013-07-17 06:35:00,71.3,67.6,30.31,WNW,303,1.0,3.0,88,0.00,,,0.00,0,Wunderground v.1.15,2013-07-17 10:35:00,
2013-07-17 06:39:00,71.4,67.7,30.31,NNW,329,1.0,3.0,88,0.00,,,0.00,5,Wunderground v.1.15,2013-07-17 10:39:00,
2013-07-17 06:45:00,71.5,67.8,30.31,NW,304,2.0,3.0,88,0.00,,,0.00,7,Wunderground v.1.15,2013-07-17 10:45:00,
2013-07-17 06:50:00,71.5,67.8,30.31,NW,307,2.0,2.0,88,0.00,,,0.00,7,Wunderground v.1.15,2013-07-17 10:50:00,
2013-07-17 06:54:00,71.6,67.9,30.31,NNW,348,2.0,2.0,88,0.00,,,0.00,7,Wunderground v.1.15,2013-07-17 10:54:00,
2013-07-17 07:00:00,71.7,68.0,30.31,NW,315,1.0,1.0,88,0.00,,,0.00,11,Wunderground v.1.15,2013-07-17 11:00:00,
2013-07-17 07:05:00,71.7,68.0,30.32,NW,325,1.0,3.0,88,0.00,,,0.00,14,Wunderground v.1.15,2013-07-17 11:05:00,
2013-07-17 07:10:00,71.8,67.7,30.31,North,360,1.0,5.0,87,0.00,,,0.00,18,Wunderground v.1.15,2013-07-17 11:10:00,
2013-07-17 07:14:00,71.8,67.7,30.31,NNW,340,2.0,5.0,87,0.00,,,0.00,23,Wunderground v.1.15,2013-07-17 11:14:00,
2013-07-17 07:20:00,71.9,67.8,30.32,NNW,334,2.0,2.0,87,0.00,,,0.00,28,Wunderground v.1.15,2013-07-17 11:20:00,
2013-07-17 07:25:00,72.0,67.9,30.31,NNW,334,0.0,2.0,87,0.00,,,0.00,33,Wunderground v.1.15,2013-07-17 11:25:00,
2013-07-17 07:29:00,72.1,68.0,30.32,NNW,346,0.0,7.0,87,0.00,,,0.00,40,Wunderground v.1.15,2013-07-17 11:29:00,
2013-07-17 07:35:00,72.1,68.0,30.31,NNW,345,1.0,7.0,87,0.00,,,0.00,53,Wunderground v.1.15,2013-07-17 11:35:00,
2013-07-17 07:40:00,72.2,68.1,30.32,NNW,344,1.0,1.0,87,0.00,,,0.00,70,Wunderground v.1.15,2013-07-17 11:40:00,
2013-07-17 07:44:00,72.4,68.3,30.32,NW,318,1.0,1.0,87,0.00,,,0.00,81,Wunderground v.1.15,2013-07-17 11:44:00,
2013-07-17 07:49:00,72.6,68.2,30.32,NNW,344,1.0,2.0,86,0.00,,,0.00,83,Wunderground v.1.15,2013-07-17 11:49:00,
2013-07-17 07:55:00,72.8,68.4,30.32,WNW,299,2.0,3.0,86,0.00,,,0.00,81,Wunderground v.1.15,2013-07-17 11:55:00,
2013-07-17 08:00:00,73.0,68.6,30.32,WNW,290,2.0,2.0,86,0.00,,,0.00,77,Wunderground v.1.15,2013-07-17 12:00:00,
2013-07-17 08:04:00,73.0,68.6,30.32,NW,320,1.0,2.0,86,0.00,,,0.00,72,Wunderground v.1.15,2013-07-17 12:04:00,
2013-07-17 08:09:00,73.1,68.7,30.32,NNW,348,1.0,3.0,86,0.00,,,0.00,62,Wunderground v.1.15,2013-07-17 12:09:00,
2013-07-17 08:15:00,73.1,68.7,30.32,WNW,296,1.0,3.0,86,0.00,,,0.00,47,Wunderground v.1.15,2013-07-17 12:15:00,
2013-07-17 08:20:00,73.1,68.7,30.32,WNW,303,1.0,1.0,86,0.00,,,0.00,40,Wunderground v.1.15,2013-07-17 12:20:00,
2013-07-17 08:25:00,73.1,68.7,30.32,North,360,2.0,2.0,86,0.00,,,0.00,39,Wunderground v.1.15,2013-07-17 12:25:00,
2013-07-17 08:30:00,73.2,68.8,30.32,NW,304,2.0,2.0,86,0.00,,,0.00,39,Wunderground v.1.15,2013-07-17 12:30:00,
2013-07-17 08:35:00,73.2,68.8,30.32,NNW,327,2.0,2.0,86,0.00,,,0.00,40,Wunderground v.1.15,2013-07-17 12:35:00,
2013-07-17 08:39:00,73.2,68.8,30.32,NNW,329,2.0,2.0,86,0.00,,,0.00,37,Wunderground v.1.15,2013-07-17 12:39:00,
2013-07-17 08:45:00,73.2,68.8,30.32,North,350,2.0,2.0,86,0.00,,,0.00,37,Wunderground v.1.15,2013-07-17 12:45:00,
2013-07-17 08:50:00,73.2,68.4,30.32,WNW,292,2.0,8.0,85,0.00,,,0.00,37,Wunderground v.1.15,2013-07-17 12:50:00,
2013-07-17 09:00:00,73.4,69.0,30.32,North,360,2.0,5.0,86,0.00,,,0.00,39,Wunderground v.1.15,2013-07-17 13:00:00,
2013-07-17 09:05:00,73.4,69.0,30.32,NNW,337,2.0,5.0,86,0.00,,,0.00,39,Wunderground v.1.15,2013-07-17 13:05:00,
2013-07-17 09:10:00,73.4,69.0,30.32,NW,326,2.0,4.0,86,0.00,,,0.00,40,Wunderground v.1.15,2013-07-17 13:10:00,
2013-07-17 09:15:00,73.5,69.1,30.32,North,355,2.0,4.0,86,0.00,,,0.00,40,Wunderground v.1.15,2013-07-17 13:15:00,
2013-07-17 09:24:00,73.6,69.2,30.32,WSW,258,2.0,3.0,86,0.00,,,0.00,42,Wunderground v.1.15,2013-07-17 13:24:00,
2013-07-17 09:30:00,73.7,69.6,30.31,WNW,287,0.0,4.0,87,0.00,,,0.00,42,Wunderground v.1.15,2013-07-17 13:30:00,
2013-07-17 09:35:00,73.7,69.2,30.31,NW,309,1.0,4.0,86,0.00,,,0.00,49,Wunderground v.1.15,2013-07-17 13:35:00,
2013-07-17 09:40:00,73.9,69.8,30.31,NW,321,2.0,3.0,87,0.00,,,0.00,47,Wunderground v.1.15,2013-07-17 13:40:00,
2013-07-17 09:45:00,74.0,69.9,30.31,WSW,243,3.0,4.0,87,0.00,,,0.00,56,Wunderground v.1.15,2013-07-17 13:45:00,
2013-07-17 09:54:00,74.3,70.2,30.31,WSW,257,2.0,3.0,87,0.00,,,0.00,76,Wunderground v.1.15,2013-07-17 13:54:00,
2013-07-17 10:00:00,74.4,69.9,30.31,WSW,238,3.0,6.0,86,0.00,,,0.00,58,Wunderground v.1.15,2013-07-17 14:00:00,
2013-07-17 10:05:00,74.6,70.1,30.32,NW,313,4.0,6.0,86,0.00,,,0.00,62,Wunderground v.1.15,2013-07-17 14:05:00,
2013-07-17 10:10:00,74.7,70.2,30.32,SSW,199,3.0,3.0,86,0.00,,,0.00,58,Wunderground v.1.15,2013-07-17 14:10:00,
2013-07-17 10:14:00,74.8,70.3,30.32,NW,308,2.0,3.0,86,0.00,,,0.00,62,Wunderground v.1.15,2013-07-17 14:14:00,
2013-07-17 10:19:00,74.9,70.4,30.32,NW,319,2.0,6.0,86,0.00,,,0.00,63,Wunderground v.1.15,2013-07-17 14:19:00,
2013-07-17 10:25:00,75.1,70.6,30.31,West,279,2.0,6.0,86,0.00,,,0.00,63,Wunderground v.1.15,2013-07-17 14:25:00,
2013-07-17 10:30:00,75.2,70.7,30.32,NNE,15,2.0,4.0,86,0.00,,,0.00,77,Wunderground v.1.15,2013-07-17 14:30:00,
2013-07-17 10:35:00,75.4,70.6,30.32,West,275,1.0,4.0,85,0.00,,,0.00,142,Wunderground v.1.15,2013-07-17 14:35:00,
2013-07-17 10:40:00,75.6,71.5,30.32,SW,227,1.0,1.0,87,0.00,,,0.00,144,Wunderground v.1.15,2013-07-17 14:40:00,
2013-07-17 10:45:00,75.7,70.9,30.32,SW,230,0.0,1.0,85,0.00,,,0.00,197,Wunderground v.1.15,2013-07-17 14:45:00,
2013-07-17 10:50:00,76.0,71.5,30.32,SW,223,0.0,0.0,86,0.00,,,0.00,178,Wunderground v.1.15,2013-07-17 14:50:00,
2013-07-17 10:55:00,76.2,71.0,30.32,SW,216,1.0,1.0,84,0.00,,,0.00,118,Wunderground v.1.15,2013-07-17 14:55:00,
2013-07-17 11:00:00,76.3,71.5,30.31,SW,217,0.0,0.0,85,0.00,,,0.00,93,Wunderground v.1.15,2013-07-17 15:00:00,
2013-07-17 11:05:00,76.4,71.9,30.31,SW,217,0.0,0.0,86,0.00,,,0.00,125,Wunderground v.1.15,2013-07-17 15:05:00,
2013-07-17 11:10:00,76.4,71.9,30.32,NW,318,0.0,1.0,86,0.00,,,0.00,109,Wunderground v.1.15,2013-07-17 15:10:00,
2013-07-17 11:15:00,76.5,72.0,30.32,South,186,1.0,1.0,86,0.00,,,0.00,104,Wunderground v.1.15,2013-07-17 15:15:00,
2013-07-17 11:20:00,76.6,72.4,30.32,South,188,0.0,3.0,87,0.00,,,0.00,116,Wunderground v.1.15,2013-07-17 15:20:00,
2013-07-17 11:25:00,76.6,72.1,30.32,South,188,0.0,3.0,86,0.00,,,0.00,165,Wunderground v.1.15,2013-07-17 15:25:00,
2013-07-17 11:30:00,76.7,71.5,30.32,SW,236,1.0,1.0,84,0.00,,,0.00,244,Wunderground v.1.15,2013-07-17 15:30:00,
2013-07-17 11:35:00,76.8,71.6,30.32,West,276,1.0,1.0,84,0.00,,,0.00,234,Wunderground v.1.15,2013-07-17 15:35:00,
2013-07-17 11:40:00,77.2,72.0,30.31,SW,234,1.0,1.0,84,0.00,,,0.00,214,Wunderground v.1.15,2013-07-17 15:40:00,
2013-07-17 11:45:00,77.5,71.6,30.32,NW,324,1.0,1.0,82,0.00,,,0.00,186,Wunderground v.1.15,2013-07-17 15:45:00,
2013-07-17 11:50:00,77.7,72.1,30.31,SSW,192,1.0,1.0,83,0.00,,,0.00,186,Wunderground v.1.15,2013-07-17 15:50:00,
2013-07-17 11:55:00,77.9,72.3,30.31,SSW,194,0.0,1.0,83,0.00,,,0.00,171,Wunderground v.1.15,2013-07-17 15:55:00,
2013-07-17 12:00:00,78.0,72.8,30.31,SSW,194,0.0,0.0,84,0.00,,,0.00,211,Wunderground v.1.15,2013-07-17 16:00:00,
2013-07-17 12:04:00,78.0,73.1,30.31,SSW,193,0.0,0.0,85,0.00,,,0.00,192,Wunderground v.1.15,2013-07-17 16:04:00,
2013-07-17 12:09:00,77.8,72.9,30.31,SSW,196,0.0,1.0,85,0.00,,,0.00,197,Wunderground v.1.15,2013-07-17 16:09:00,
2013-07-17 12:15:00,77.9,73.0,30.30,SSW,206,0.0,1.0,85,0.00,,,0.00,162,Wunderground v.1.15,2013-07-17 16:15:00,
2013-07-17 12:20:00,77.9,73.7,30.30,SSW,206,0.0,0.0,87,0.00,,,0.00,158,Wunderground v.1.15,2013-07-17 16:20:00,
2013-07-17 12:25:00,77.9,73.0,30.30,SSW,206,0.0,0.0,85,0.00,,,0.00,851,Wunderground v.1.15,2013-07-17 16:25:00,
2013-07-17 12:30:00,78.0,73.1,30.30,SSW,206,0.0,2.0,85,0.00,,,0.00,318,Wunderground v.1.15,2013-07-17 16:30:00,
2013-07-17 12:34:00,78.3,74.1,30.30,SSW,206,0.0,2.0,87,0.00,,,0.00,139,Wunderground v.1.15,2013-07-17 16:34:00,
2013-07-17 12:39:00,78.3,73.8,30.30,South,188,0.0,0.0,86,0.00,,,0.00,188,Wunderground v.1.15,2013-07-17 16:39:00,
2013-07-17 12:45:00,78.7,73.1,30.29,South,191,0.0,0.0,83,0.00,,,0.00,974,Wunderground v.1.15,2013-07-17 16:45:00,
2013-07-17 12:50:00,79.4,73.4,30.29,WNW,298,1.0,1.0,82,0.00,,,0.00,947,Wunderground v.1.15,2013-07-17 16:50:00,
2013-07-17 12:55:00,80.0,73.3,30.29,WNW,286,1.0,1.0,80,0.00,,,0.00,939,Wunderground v.1.15,2013-07-17 16:55:00,
2013-07-17 13:00:00,80.6,74.2,30.28,WNW,295,0.0,0.0,81,0.00,,,0.00,1028,Wunderground v.1.15,2013-07-17 17:00:00,
2013-07-17 13:05:00,81.2,73.3,30.29,NNW,331,1.0,1.0,77,0.00,,,0.00,237,Wunderground v.1.15,2013-07-17 17:05:00,
2013-07-17 13:10:00,81.5,72.8,30.28,WNW,298,1.0,1.0,75,0.00,,,0.00,1011,Wunderground v.1.15,2013-07-17 17:10:00,
2013-07-17 13:15:00,81.6,72.5,30.28,WNW,285,2.0,2.0,74,0.00,,,0.00,229,Wunderground v.1.15,2013-07-17 17:15:00,
2013-07-17 13:20:00,81.8,73.1,30.28,WNW,299,2.0,2.0,75,0.00,,,0.00,1046,Wunderground v.1.15,2013-07-17 17:20:00,
2013-07-17 13:24:00,82.1,72.6,30.28,NW,316,2.0,5.0,73,0.00,,,0.00,1046,Wunderground v.1.15,2013-07-17 17:24:00,
2013-07-17 13:29:00,82.2,72.7,30.28,WSW,240,2.0,4.0,73,0.00,,,0.00,1039,Wunderground v.1.15,2013-07-17 17:29:00,
2013-07-17 13:35:00,82.5,73.0,30.28,WSW,241,2.0,4.0,73,0.00,,,0.00,195,Wunderground v.1.15,2013-07-17 17:35:00,
2013-07-17 13:40:00,82.8,74.5,30.28,WSW,240,1.0,1.0,76,0.00,,,0.00,216,Wunderground v.1.15,2013-07-17 17:40:00,
2013-07-17 13:45:00,83.4,75.0,30.27,WSW,240,0.0,1.0,76,0.00,,,0.00,933,Wunderground v.1.15,2013-07-17 17:45:00,
2013-07-17 13:50:00,83.6,73.2,30.26,WNW,299,0.0,0.0,71,0.00,,,0.00,207,Wunderground v.1.15,2013-07-17 17:50:00,
2013-07-17 13:55:00,83.8,74.6,30.26,WSW,253,1.0,1.0,74,0.00,,,0.00,1007,Wunderground v.1.15,2013-07-17 17:55:00,
2013-07-17 14:00:00,83.9,75.5,30.26,WSW,251,0.0,1.0,76,0.00,,,0.00,1049,Wunderground v.1.15,2013-07-17 18:00:00,
2013-07-17 14:04:00,84.0,73.2,30.25,SSW,192,1.0,1.0,70,0.00,,,0.00,1063,Wunderground v.1.15,2013-07-17 18:04:00,
2013-07-17 14:09:00,84.2,74.2,30.25,SSW,192,1.0,1.0,72,0.00,,,0.00,229,Wunderground v.1.15,2013-07-17 18:09:00,
2013-07-17 14:15:00,84.5,75.3,30.25,South,190,0.0,1.0,74,0.00,,,0.00,1086,Wunderground v.1.15,2013-07-17 18:15:00,
2013-07-17 14:20:00,85.0,71.9,30.24,West,260,1.0,1.0,65,0.00,,,0.00,958,Wunderground v.1.15,2013-07-17 18:20:00,
2013-07-17 14:25:00,84.9,73.2,30.24,NW,316,1.0,1.0,68,0.00,,,0.00,179,Wunderground v.1.15,2013-07-17 18:25:00,
2013-07-17 14:30:00,85.1,73.8,30.24,SW,224,1.0,1.0,69,0.00,,,0.00,1007,Wunderground v.1.15,2013-07-17 18:30:00,
2013-07-17 14:34:00,85.2,72.6,30.24,WSW,237,1.0,3.0,66,0.00,,,0.00,200,Wunderground v.1.15,2013-07-17 18:34:00,
2013-07-17 14:39:00,85.2,74.7,30.24,WSW,237,1.0,1.0,71,0.00,,,0.00,1018,Wunderground v.1.15,2013-07-17 18:39:00,
2013-07-17 14:45:00,85.0,76.2,30.23,WSW,237,0.0,1.0,75,0.00,,,0.00,206,Wunderground v.1.15,2013-07-17 18:45:00,
2013-07-17 14:50:00,84.7,75.5,30.23,WSW,252,0.0,0.0,74,0.00,,,0.00,246,Wunderground v.1.15,2013-07-17 18:50:00,
2013-07-17 14:54:00,84.5,73.6,30.23,WSW,247,0.0,3.0,70,0.00,,,0.00,121,Wunderground v.1.15,2013-07-17 18:54:00,
2013-07-17 15:00:00,84.2,75.0,30.23,WSW,246,0.0,0.0,74,0.00,,,0.00,155,Wunderground v.1.15,2013-07-17 19:00:00,
2013-07-17 15:05:00,83.8,75.0,30.23,WSW,246,0.0,0.0,75,0.00,,,0.00,160,Wunderground v.1.15,2013-07-17 19:05:00,
2013-07-17 15:10:00,83.3,75.7,30.23,WSW,246,0.0,0.0,78,0.00,,,0.00,123,Wunderground v.1.15,2013-07-17 19:10:00,
2013-07-17 15:14:00,82.5,74.9,30.23,WSW,247,0.0,0.0,78,0.00,,,0.00,121,Wunderground v.1.15,2013-07-17 19:14:00,
2013-07-17 15:19:00,81.6,74.5,30.23,WSW,247,0.0,0.0,79,0.00,,,0.00,95,Wunderground v.1.15,2013-07-17 19:19:00,
2013-07-17 15:25:00,80.9,74.5,30.24,WSW,247,0.0,0.0,81,0.00,,,0.00,74,Wunderground v.1.15,2013-07-17 19:25:00,
2013-07-17 15:29:00,80.3,73.9,30.23,WSW,247,0.0,0.0,81,0.00,,,0.00,56,Wunderground v.1.15,2013-07-17 19:29:00,
2013-07-17 15:35:00,79.5,73.9,30.24,WSW,247,0.0,0.0,83,0.00,,,0.00,40,Wunderground v.1.15,2013-07-17 19:35:00,
2013-07-17 15:40:00,79.0,74.5,30.24,WSW,247,0.0,0.0,86,0.00,,,0.00,28,Wunderground v.1.15,2013-07-17 19:40:00,
2013-07-17 15:44:00,78.6,73.7,30.24,WSW,246,0.0,0.0,85,0.00,,,0.00,19,Wunderground v.1.15,2013-07-17 19:44:00,
2013-07-17 15:49:00,78.1,73.6,30.24,WSW,247,0.0,0.0,86,0.00,,,0.00,16,Wunderground v.1.15,2013-07-17 19:49:00,
2013-07-17 15:55:00,77.6,73.1,30.23,WSW,247,0.0,0.0,86,0.00,,,0.00,14,Wunderground v.1.15,2013-07-17 19:55:00,
2013-07-17 16:00:00,77.1,72.9,30.23,WSW,247,0.0,0.0,87,0.00,,,0.00,14,Wunderground v.1.15,2013-07-17 20:00:00,
2013-07-17 16:05:00,76.7,72.9,30.23,WSW,246,0.0,0.0,88,0.00,,,0.00,16,Wunderground v.1.15,2013-07-17 20:05:00,
2013-07-17 16:10:00,76.3,72.8,30.21,WSW,246,0.0,0.0,89,0.00,,,0.00,18,Wunderground v.1.15,2013-07-17 20:10:00,
2013-07-17 16:15:00,76.0,72.5,30.21,WSW,247,0.0,0.0,89,0.00,,,0.00,18,Wunderground v.1.15,2013-07-17 20:15:00,
2013-07-17 16:20:00,75.6,72.5,30.22,WSW,247,0.0,0.0,90,0.00,,,0.00,18,Wunderground v.1.15,2013-07-17 20:20:00,
2013-07-17 16:25:00,75.4,72.3,30.22,WSW,247,0.0,0.0,90,0.00,,,0.00,18,Wunderground v.1.15,2013-07-17 20:25:00,
2013-07-17 16:30:00,75.1,72.3,30.23,WSW,246,0.0,0.0,91,0.00,,,0.00,16,Wunderground v.1.15,2013-07-17 20:30:00,
2013-07-17 16:35:00,74.9,72.1,30.23,WSW,247,0.0,0.0,91,0.00,,,0.00,18,Wunderground v.1.15,2013-07-17 20:35:00,
2013-07-17 16:39:00,74.7,71.9,30.23,WSW,246,0.0,0.0,91,0.00,,,0.00,18,Wunderground v.1.15,2013-07-17 20:39:00,
2013-07-17 16:45:00,74.5,72.0,30.23,WSW,247,0.0,0.0,92,0.00,,,0.00,21,Wunderground v.1.15,2013-07-17 20:45:00,
2013-07-17 16:50:00,74.3,71.8,30.22,WSW,247,0.0,0.0,92,0.00,,,0.00,25,Wunderground v.1.15,2013-07-17 20:50:00,
2013-07-17 16:55:00,74.2,71.7,30.22,WSW,247,0.0,0.0,92,0.00,,,0.00,28,Wunderground v.1.15,2013-07-17 20:55:00,
2013-07-17 17:00:00,74.0,71.8,30.21,WSW,247,0.0,0.0,93,0.00,,,0.00,33,Wunderground v.1.15,2013-07-17 21:00:00,
2013-07-17 17:05:00,74.0,71.8,30.21,WSW,246,0.0,0.0,93,0.00,,,0.00,39,Wunderground v.1.15,2013-07-17 21:05:00,
2013-07-17 17:10:00,73.9,71.7,30.22,WSW,247,0.0,0.0,93,0.00,,,0.00,37,Wunderground v.1.15,2013-07-17 21:10:00,
2013-07-17 17:14:00,73.7,71.9,30.22,WSW,247,0.0,0.0,94,0.00,,,0.00,39,Wunderground v.1.15,2013-07-17 21:14:00,
2013-07-17 17:19:00,73.6,71.8,30.23,WSW,247,0.0,0.0,94,0.00,,,0.00,37,Wunderground v.1.15,2013-07-17 21:19:00,
2013-07-17 17:25:00,73.6,71.8,30.24,WSW,247,0.0,0.0,94,0.00,,,0.00,33,Wunderground v.1.15,2013-07-17 21:25:00,
2013-07-17 17:30:00,73.5,71.7,30.24,WSW,247,0.0,0.0,94,0.00,,,0.00,28,Wunderground v.1.15,2013-07-17 21:30:00,
2013-07-17 17:34:00,73.5,71.7,30.24,WSW,247,0.0,0.0,94,0.00,,,0.00,40,Wunderground v.1.15,2013-07-17 21:34:00,
2013-07-17 17:39:00,73.4,71.6,30.23,WSW,247,0.0,0.0,94,0.00,,,0.00,44,Wunderground v.1.15,2013-07-17 21:39:00,
2013-07-17 17:45:00,73.3,71.5,30.23,WSW,247,0.0,0.0,94,0.00,,,0.00,49,Wunderground v.1.15,2013-07-17 21:45:00,
2013-07-17 17:50:00,73.3,71.5,30.22,WSW,247,0.0,0.0,94,0.00,,,0.00,53,Wunderground v.1.15,2013-07-17 21:50:00,
2013-07-17 18:00:00,73.0,71.2,30.22,WSW,248,0.0,0.0,94,0.00,,,0.00,53,Wunderground v.1.15,2013-07-17 22:00:00,
2013-07-17 18:05:00,73.0,70.9,30.22,NNE,13,0.0,4.0,93,0.00,,,0.00,53,Wunderground v.1.15,2013-07-17 22:05:00,
2013-07-17 18:10:00,73.1,70.3,30.21,NNE,13,0.0,0.0,91,0.00,,,0.00,51,Wunderground v.1.15,2013-07-17 22:10:00,
2013-07-17 18:14:00,73.3,70.2,30.21,North,360,1.0,1.0,90,0.00,,,0.00,51,Wunderground v.1.15,2013-07-17 22:14:00,
2013-07-17 18:19:00,73.6,70.5,30.21,North,360,1.0,1.0,90,0.00,,,0.00,49,Wunderground v.1.15,2013-07-17 22:19:00,
2013-07-17 18:25:00,73.8,70.7,30.21,North,360,0.0,1.0,90,0.00,,,0.00,46,Wunderground v.1.15,2013-07-17 22:25:00,
2013-07-17 18:30:00,74.0,70.9,30.22,North,360,0.0,0.0,90,0.00,,,0.00,42,Wunderground v.1.15,2013-07-17 22:30:00,
2013-07-17 18:35:00,74.0,70.9,30.23,North,360,0.0,0.0,90,0.00,,,0.00,40,Wunderground v.1.15,2013-07-17 22:35:00,
2013-07-17 18:39:00,74.0,70.9,30.23,North,360,0.0,0.0,90,0.00,,,0.00,37,Wunderground v.1.15,2013-07-17 22:39:00,
2013-07-17 18:45:00,74.0,70.6,30.23,North,360,0.0,0.0,89,0.00,,,0.00,33,Wunderground v.1.15,2013-07-17 22:45:00,
2013-07-17 18:50:00,74.0,70.6,30.23,North,355,1.0,1.0,89,0.00,,,0.00,33,Wunderground v.1.15,2013-07-17 22:50:00,
2013-07-17 18:55:00,74.1,71.0,30.23,North,355,0.0,1.0,90,0.00,,,0.00,33,Wunderground v.1.15,2013-07-17 22:55:00,
2013-07-17 19:00:00,74.1,71.0,30.24,North,355,0.0,0.0,90,0.00,,,0.00,30,Wunderground v.1.15,2013-07-17 23:00:00,
2013-07-17 19:05:00,73.9,70.5,30.23,North,355,0.0,0.0,89,0.00,,,0.00,28,Wunderground v.1.15,2013-07-17 23:05:00,
2013-07-17 19:15:00,73.8,70.7,30.23,North,355,0.0,0.0,90,0.00,,,0.00,28,Wunderground v.1.15,2013-07-17 23:15:00,
2013-07-17 19:20:00,73.8,70.7,30.24,North,355,0.0,0.0,90,0.00,,,0.00,28,Wunderground v.1.15,2013-07-17 23:20:00,
2013-07-17 19:24:00,73.7,70.6,30.24,North,355,0.0,0.0,90,0.00,,,0.00,21,Wunderground v.1.15,2013-07-17 23:24:00,
2013-07-17 19:29:00,73.7,70.9,30.24,North,355,0.0,0.0,91,0.00,,,0.00,19,Wunderground v.1.15,2013-07-17 23:29:00,
2013-07-17 19:35:00,73.6,70.8,30.24,North,355,0.0,0.0,91,0.00,,,0.00,7,Wunderground v.1.15,2013-07-17 23:35:00,
2013-07-17 19:45:00,72.8,64.8,30.26,WSW,248,3.0,4.0,76,0.00,,,0.00,0,Wunderground v.1.15,2013-07-17 23:45:00,
2013-07-17 19:50:00,72.4,65.9,30.26,WNW,290,3.0,3.0,80,0.00,,,0.00,0,Wunderground v.1.15,2013-07-17 23:50:00,
2013-07-17 19:55:00,71.5,66.1,30.27,NW,312,3.0,14.0,83,4.92,,,0.11,0,Wunderground v.1.15,2013-07-17 23:55:00,
2013-07-17 20:00:00,69.6,64.9,30.27,WNW,302,4.0,4.0,85,0.39,,,0.16,0,Wunderground v.1.15,2013-07-18 00:00:00,
2013-07-17 20:04:00,68.5,64.5,30.27,North,349,4.0,5.0,87,0.16,,,0.17,0,Wunderground v.1.15,2013-07-18 00:04:00,
2013-07-17 20:09:00,67.5,64.1,30.26,North,355,3.0,3.0,89,0.27,,,0.19,0,Wunderground v.1.15,2013-07-18 00:09:00,
2013-07-17 20:15:00,66.9,63.9,30.27,North,355,2.0,3.0,90,0.21,,,0.21,0,Wunderground v.1.15,2013-07-18 00:15:00,
2013-07-17 20:19:00,66.5,64.1,30.28,North,355,1.0,1.0,92,0.56,,,0.26,0,Wunderground v.1.15,2013-07-18 00:19:00,
2013-07-17 20:25:00,66.1,64.0,30.27,North,355,0.0,1.0,93,0.48,,,0.34,0,Wunderground v.1.15,2013-07-18 00:25:00,
2013-07-17 20:30:00,65.6,63.8,30.27,North,355,1.0,2.0,94,0.46,,,0.38,0,Wunderground v.1.15,2013-07-18 00:30:00,
2013-07-17 20:39:00,65.0,63.8,30.28,North,355,1.0,1.0,96,0.16,,,0.44,0,Wunderground v.1.15,2013-07-18 00:39:00,
2013-07-17 20:45:00,65.1,64.2,30.27,North,360,1.0,1.0,97,0.09,,,0.45,0,Wunderground v.1.15,2013-07-18 00:45:00,
2013-07-17 20:50:00,65.2,64.3,30.27,North,360,1.0,1.0,97,0.08,,,0.45,0,Wunderground v.1.15,2013-07-18 00:50:00,
2013-07-17 21:00:00,66.0,65.7,30.27,North,355,1.0,2.0,99,0.00,,,0.45,0,Wunderground v.1.15,2013-07-18 01:00:00,
2013-07-17 21:05:00,66.4,66.1,30.27,North,355,0.0,2.0,99,0.00,,,0.45,0,Wunderground v.1.15,2013-07-18 01:05:00,
2013-07-17 21:10:00,66.7,66.4,30.27,North,355,0.0,0.0,99,0.00,,,0.45,0,Wunderground v.1.15,2013-07-18 01:10:00,
2013-07-17 21:15:00,66.8,66.5,30.26,WNW,290,1.0,4.0,99,0.00,,,0.45,0,Wunderground v.1.15,2013-07-18 01:15:00,
2013-07-17 21:20:00,66.8,66.5,30.26,NNW,328,2.0,2.0,99,0.00,,,0.46,0,Wunderground v.1.15,2013-07-18 01:20:00,
2013-07-17 21:25:00,66.7,66.4,30.26,NNW,334,3.0,4.0,99,0.00,,,0.46,0,Wunderground v.1.15,2013-07-18 01:25:00,
2013-07-17 21:30:00,66.8,66.5,30.26,North,349,4.0,4.0,99,0.00,,,0.46,0,Wunderground v.1.15,2013-07-18 01:30:00,
2013-07-17 21:35:00,66.9,66.6,30.26,NNW,346,4.0,4.0,99,0.00,,,0.46,0,Wunderground v.1.15,2013-07-18 01:35:00,
2013-07-17 21:40:00,67.1,66.8,30.26,NNW,334,4.0,4.0,99,0.00,,,0.46,0,Wunderground v.1.15,2013-07-18 01:40:00,
2013-07-17 21:44:00,67.3,67.0,30.27,North,351,3.0,6.0,99,0.00,,,0.46,0,Wunderground v.1.15,2013-07-18 01:44:00,
2013-07-17 21:49:00,67.6,67.3,30.27,NW,321,3.0,3.0,99,0.00,,,0.46,0,Wunderground v.1.15,2013-07-18 01:49:00,
2013-07-17 21:55:00,67.9,67.6,30.27,NNW,329,4.0,4.0,99,0.00,,,0.46,0,Wunderground v.1.15,2013-07-18 01:55:00,
2013-07-17 22:00:00,68.0,67.7,30.26,WNW,291,3.0,3.0,99,0.00,,,0.46,0,Wunderground v.1.15,2013-07-18 02:00:00,
2013-07-17 22:05:00,68.2,67.6,30.27,WNW,296,3.0,7.0,98,0.00,,,0.46,0,Wunderground v.1.15,2013-07-18 02:05:00,
2013-07-17 22:09:00,68.3,67.7,30.27,NNW,338,2.0,2.0,98,0.00,,,0.46,0,Wunderground v.1.15,2013-07-18 02:09:00,
2013-07-17 22:15:00,68.3,67.7,30.27,NNW,329,1.0,3.0,98,0.00,,,0.46,0,Wunderground v.1.15,2013-07-18 02:15:00,
2013-07-17 22:20:00,68.4,67.5,30.27,NW,310,1.0,1.0,97,0.00,,,0.46,0,Wunderground v.1.15,2013-07-18 02:20:00,
2013-07-17 22:29:00,68.3,67.4,30.27,NNW,344,2.0,2.0,97,0.00,,,0.46,0,Wunderground v.1.15,2013-07-18 02:29:00,
2013-07-17 22:35:00,68.4,67.5,30.27,North,351,2.0,2.0,97,0.00,,,0.46,0,Wunderground v.1.15,2013-07-18 02:35:00,
2013-07-17 22:40:00,68.4,67.5,30.27,West,269,1.0,1.0,97,0.00,,,0.46,0,Wunderground v.1.15,2013-07-18 02:40:00,
2013-07-17 22:45:00,68.4,67.5,30.27,NW,314,1.0,1.0,97,0.00,,,0.46,0,Wunderground v.1.15,2013-07-18 02:45:00,
2013-07-17 22:50:00,68.4,67.5,30.26,NNW,342,2.0,2.0,97,0.00,,,0.46,0,Wunderground v.1.15,2013-07-18 02:50:00,
2013-07-17 23:00:00,68.5,67.6,30.26,NW,325,2.0,2.0,97,0.00,,,0.46,0,Wunderground v.1.15,2013-07-18 03:00:00,
2013-07-17 23:05:00,68.5,67.3,30.27,North,5,2.0,4.0,96,0.00,,,0.46,0,Wunderground v.1.15,2013-07-18 03:05:00,
2013-07-17 23:10:00,68.6,67.4,30.26,NNW,334,3.0,3.0,96,0.00,,,0.46,0,Wunderground v.1.15,2013-07-18 03:10:00,
2013-07-17 23:19:00,68.8,67.3,30.26,NW,318,2.0,2.0,95,0.00,,,0.46,0,Wunderground v.1.15,2013-07-18 03:19:00,
2013-07-17 23:25:00,68.9,67.4,30.26,NW,311,2.0,2.0,95,0.00,,,0.46,0,Wunderground v.1.15,2013-07-18 03:25:00,
2013-07-17 23:30:00,68.9,67.4,30.25,NNW,345,3.0,5.0,95,0.00,,,0.46,0,Wunderground v.1.15,2013-07-18 03:30:00,
2013-07-17 23:35:00,68.9,67.1,30.25,North,350,4.0,6.0,94,0.00,,,0.46,0,Wunderground v.1.15,2013-07-18 03:35:00,
2013-07-17 23:44:00,68.9,67.1,30.25,NNW,337,4.0,4.0,94,0.00,,,0.46,0,Wunderground v.1.15,2013-07-18 03:44:00,
2013-07-17 23:49:00,69.0,67.2,30.25,NNW,329,5.0,5.0,94,0.00,,,0.46,0,Wunderground v.1.15,2013-07-18 03:49:00,
2013-07-17 23:55:00,69.0,66.9,30.25,North,350,5.0,5.0,93,0.00,,,0.46,0,Wunderground v.1.15,2013-07-18 03:55:00,